FW4191 Weather Reports


Display with metric or nautical units.
time (UTC)temp
F
wind
direction
speed
MPH
gust
MPH
rain 1hr
in
rain 24hr
in
rain mn
in
humidity
%
barometer
mb
20260507060624 40 202 0.0 0.0 0.00 0.42 0.00 92 1078.5
20260507055626 39 202 0.0 0.0 0.00 0.43 0.00 92 1078.5
20260507053625 40 202 0.0 0.0 0.00 0.45 0.00 92 1078.6
20260507052625 40 202 0.0 0.0 0.00 0.46 0.00 93 1078.5
20260507050641 40 202 0.0 0.0 0.00 0.47 0.00 91 1078.8
20260507045626 40 202 0.0 0.0 0.00 0.48 0.00 92 1078.9
20260507044625 40 202 0.0 0.0 0.00 0.49 0.00 92 1078.8
20260507043626 41 202 0.0 0.0 0.00 0.49 0.00 91 1078.7
20260507043540 41 202 0.0 0.0 0.00 0.50 0.00 91 1078.7
20260507042542 41 202 0.0 0.0 0.00 0.50 0.00 92 1078.8
20260507041624 41 202 0.0 0.0 0.00 0.51 0.00 92 1078.9
20260507033630 42 202 0.0 0.0 0.00 0.54 0.52 91 1078.6
20260507032629 43 202 0.0 0.0 0.00 0.55 0.52 90 1078.8
20260507032546 43 202 0.0 0.0 0.00 0.55 0.52 90 1078.8
20260507031529 42 202 0.0 0.0 0.00 0.55 0.52 90 1078.8
20260507024545 43 202 0.0 0.0 0.00 0.57 0.52 88 1078.8
20260507023629 43 202 0.0 0.0 0.00 0.59 0.52 87 1078.9
20260507021629 44 202 0.0 0.0 0.00 0.61 0.52 85 1079.0
20260507020629 44 202 0.0 0.0 0.00 0.61 0.52 85 1078.6
20260507015628 44 202 0.0 0.0 0.00 0.62 0.52 84 1078.7
20260507014629 45 202 0.0 0.0 0.00 0.63 0.52 82 1078.5
20260507013546 45 202 0.0 0.0 0.00 0.64 0.52 80 1078.4
20260507012529 46 202 0.0 0.0 0.00 0.65 0.52 78 1078.2
20260507011546 47 202 0.0 0.0 0.00 0.66 0.52 78 1078.4
20260507005628 48 202 0.0 0.0 0.00 0.68 0.52 75 1078.5
20260507004630 49 202 0.0 0.0 0.00 0.69 0.52 73 1078.4
20260507003629 50 225 0.0 0.0 0.00 0.69 0.52 72 1078.3
20260507002631 51 225 0.0 0.0 0.00 0.70 0.52 70 1078.2
20260507001728 52 225 0.0 0.0 0.00 0.71 0.52 68 1078.0
20260507000728 53 225 0.0 0.0 0.00 0.71 0.52 68 1078.0
20260506235728 54 225 0.0 0.0 0.00 0.72 0.52 65 1077.8
20260506234730 55 225 0.0 0.0 0.00 0.72 0.52 62 1078.0
20260506233729 55 225 0.0 0.0 0.00 0.73 0.52 59 1077.8
20260506232828 56 243 1.0 3.0 0.00 0.73 0.52 61 1077.8
20260506231844 57 45 0.0 0.0 0.00 0.73 0.52 60 1077.6
20260506230930 57 45 0.0 0.0 0.00 0.73 0.52 60 1077.9
20260506225046 57 45 0.0 0.0 0.00 0.73 0.52 60 1077.9
20260506224130 57 45 0.0 0.0 0.00 0.73 0.52 57 1078.0
20260506223129 57 45 0.0 0.0 0.00 0.74 0.52 55 1077.9
20260506222129 57 45 0.0 0.0 0.00 0.75 0.52 54 1078.1
20260506220244 58 360 0.0 0.0 0.00 0.76 0.52 56 1078.2
20260506214346 58 45 0.0 1.0 0.00 0.78 0.52 56 1078.2
20260506213328 59 67 0.0 0.0 0.00 0.79 0.52 56 1078.0
20260506212330 59 337 0.0 0.0 0.00 0.79 0.52 57 1077.9
20260506211427 58 67 0.0 0.0 0.00 0.80 0.52 55 1077.8
20260506210429 58 36 0.0 0.0 0.00 0.81 0.52 53 1077.5
20260506205528 58 115 2.0 5.0 0.00 0.82 0.52 55 1077.5
20260506204527 58 12 0.0 1.0 0.00 0.83 0.52 55 1077.6
20260506203429 58 28 1.0 2.0 0.00 0.85 0.52 57 1077.7
20260506202527 58 157 0.0 0.0 0.00 0.86 0.52 56 1077.6
20260506202429 58 157 0.0 0.0 0.00 0.86 0.52 56 1077.7
20260506201427 58 180 0.0 0.0 0.00 0.88 0.52 57 1077.7
20260506201329 58 180 0.0 0.0 0.00 0.88 0.52 57 1077.6
20260506200346 59 337 0.0 0.0 0.00 0.90 0.52 53 1077.7
20260506195430 59 45 0.0 2.0 0.00 0.92 0.52 53 1077.6
20260506194528 59 297 0.0 1.0 0.00 0.93 0.52 54 1077.6
20260506192528 60 231 1.0 6.0 0.00 0.94 0.52 52 1077.4
20260506191544 60 10 0.0 2.0 0.01 0.94 0.52 55 1077.4
20260506190627 60 333 0.0 0.0 0.01 0.94 0.52 53 1077.3
20260506190528 60 275 1.0 3.0 0.01 0.94 0.52 53 1077.4
20260506185529 60 315 0.0 1.0 0.01 0.94 0.52 53 1077.5
20260506184628 61 301 0.0 2.0 0.01 0.94 0.52 54 1077.2
20260506183630 60 360 0.0 2.0 0.01 0.94 0.52 50 1077.2
20260506182728 61 75 1.0 4.0 0.01 0.94 0.52 52 1077.2
20260506181745 61 242 0.0 2.0 0.00 0.93 0.51 52 1077.3
20260506180828 61 241 1.0 3.0 0.00 0.93 0.51 55 1077.1
20260506175828 60 92 1.0 4.0 0.00 0.93 0.51 54 1077.4
20260506174828 60 20 0.0 1.0 0.00 0.93 0.51 54 1077.8
20260506172928 59 360 0.0 0.0 0.01 0.93 0.51 55 1077.6
20260506170928 59 37 2.0 4.0 0.03 0.93 0.51 57 1077.7
20260506170027 59 290 0.0 1.0 0.04 0.93 0.51 57 1077.8
20260506165028 60 59 1.0 3.0 0.05 0.93 0.51 60 1077.8
20260506164028 59 54 2.0 3.0 0.06 0.93 0.51 58 1077.9
20260506162045 58 291 0.0 1.0 0.06 0.91 0.49 62 1077.7
20260506161127 57 315 0.0 1.0 0.05 0.90 0.48 63 1077.7
20260506160128 56 73 2.0 4.0 0.05 0.89 0.47 61 1077.7
20260506154129 57 10 1.0 3.0 0.04 0.87 0.45 63 1078.0
20260506153227 56 19 1.0 3.0 0.05 0.87 0.44 64 1078.0
20260506152228 56 251 0.0 1.0 0.05 0.86 0.44 66 1077.9
20260506151230 55 290 1.0 2.0 0.04 0.85 0.43 70 1077.3
20260506150228 55 199 0.0 2.0 0.04 0.84 0.42 73 1077.2
20260506145229 54 22 0.0 0.0 0.03 0.83 0.41 77 1076.8
20260506144327 54 268 0.0 1.0 0.04 0.83 0.41 79 1076.7
20260506144228 54 9 0.0 1.0 0.04 0.83 0.41 79 1076.7
20260506143228 53 41 2.0 4.0 0.03 0.82 0.40 85 1076.6
20260506141326 51 26 1.0 2.0 0.03 0.81 0.39 91 1076.7
20260506140327 50 360 0.0 0.0 0.03 0.80 0.38 92 1076.6
20260506134327 48 26 1.0 2.0 0.03 0.79 0.37 94 1076.6
20260506132428 47 45 0.0 1.0 0.03 0.78 0.36 95 1075.9
20260506131428 47 45 0.0 0.0 0.03 0.78 0.36 95 1076.1
20260506131327 47 45 0.0 0.0 0.03 0.78 0.36 95 1076.1
20260506131244 47 45 0.0 0.0 0.03 0.78 0.36 95 1076.1
20260506130328 47 45 0.0 0.0 0.03 0.77 0.35 95 1076.0
20260506124330 46 45 0.0 0.0 0.03 0.76 0.34 94 1075.4
20260506122428 46 229 0.0 3.0 0.03 0.75 0.33 94 1075.5
20260506121444 45 67 0.0 0.0 0.03 0.75 0.33 94 1075.1
20260506120428 45 360 0.0 0.0 0.03 0.74 0.32 95 1075.2
20260506115526 45 360 0.0 0.0 0.03 0.74 0.32 95 1074.8
20260506114528 44 156 0.0 0.0 0.03 0.74 0.31 94 1074.2
20260506113527 44 157 0.0 0.0 0.03 0.74 0.31 94 1074.0
20260506112530 44 67 0.0 0.0 0.04 0.74 0.30 94 1073.8
20260506111528 44 315 0.0 0.0 0.03 0.73 0.30 94 1073.9
20260506110528 45 180 0.0 0.0 0.04 0.73 0.28 95 1073.9
20260506105626 45 180 0.0 0.0 0.03 0.72 0.28 95 1073.5
20260506104726 45 180 0.0 0.0 0.04 0.72 0.28 94 1073.3
20260506103728 45 180 0.0 0.0 0.04 0.72 0.28 95 1073.7
20260506102745 45 180 0.0 1.0 0.03 0.71 0.27 94 1073.3
20260506102627 45 126 0.0 1.0 0.03 0.72 0.27 95 1073.2
20260506101627 45 180 0.0 0.0 0.04 0.74 0.27 95 1073.0
20260506095628 45 270 0.0 0.0 0.04 0.74 0.25 95 1073.0
20260506094628 44 225 0.0 0.0 0.04 0.74 0.25 95 1072.7
20260506093727 44 315 0.0 0.0 0.03 0.73 0.24 95 1072.5
20260506092727 44 259 0.0 0.0 0.04 0.73 0.24 95 1072.2
20260506090828 44 85 1.0 3.0 0.04 0.72 0.23 95 1072.0
20260506084827 44 225 0.0 0.0 0.04 0.70 0.21 94 1072.3
20260506082843 45 303 1.0 3.0 0.04 0.69 0.20 94 1072.1
20260506081928 45 45 0.0 0.0 0.04 0.68 0.19 95 1071.9
20260506081829 45 52 0.0 0.0 0.04 0.68 0.19 94 1071.9
20260506080826 45 157 0.0 0.0 0.05 0.68 0.19 95 1071.8
20260506072828 46 58 1.0 7.0 0.05 0.65 0.16 95 1072.1
20260506071828 46 310 1.0 3.0 0.04 0.64 0.15 95 1071.9
20260506070827 47 39 2.0 6.0 0.04 0.63 0.14 95 1071.8
20260506061928 48 346 0.0 1.0 0.05 0.60 0.11 93 1070.9